Weather History for KCPW - May, 2013

Change the Weather History Date:

Wednesday, May 1, 2013

  Actual Average (KALS) Record (KALS)
Temperature  
Mean Temperature 25 °F 47 °F  
Max Temperature 35 °F 64 °F 78 °F (2001)
Min Temperature 15 °F 29 °F 11 °F (1967)
Degree Days  
Heating Degree Days 40 18  
Month to date heating degree days 18  
Since 1 July heating degree days 8018  
Cooling Degree Days 0 0  
Month to date cooling degree days 0  
Year to date cooling degree days 0  
Moisture  
Dew Point 9 °F    
Average Humidity 41    
Maximum Humidity 73    
Minimum Humidity 19    
Precipitation  
Precipitation 0.00 in 0.02 in 0.50 in (1990)
Month to date precipitation 0.02  
Year to date precipitation 1.66  
Snow  
Snow 0.00 in 0.10 in 3.10 in (1999)
Month to date snowfall 0.1  
Since 1 July snowfall 26.8  
Snow Depth -    
Sea Level Pressure  
Sea Level Pressure 30.17 in    
Wind  
Wind Speed 25 mph (SW)    
Max Wind Speed 41 mph    
Max Gust Speed 63 mph    
Visibility 10 miles    
Events      
T = Trace of Precipitation, MM = Missing Value Source: NWS Daily Summary

Daily Weather History Graph

Daily Weather History Graph

Search for Another Location

Airport or City:

Trip Planner

Search our weather history database for the weather conditions in past years. The results will help you decide how hot, cold, wet, or windy it might be!

Date:

Astronomy

May. 01, 2013 Rise Set
Actual Time 6:11 AM MDT 7:57 PM MDT
Civil Twilight 5:43 AM MDT 8:25 PM MDT
Nautical Twilight 5:09 AM MDT 8:59 PM MDT
Astronomical Twilight 4:33 AM MDT 9:35 PM MDT
Moon 1:08 AM MDT (5/1) 11:53 AM MDT (5/1)
Length of Visible Light 14h 41m
Length of Day
13h 45m
Waning Gibbous, 58% of the Moon is Illuminated
May 1
Waning Gibbous
May 2
Last Quarter
May 9
New
May 17
First Quarter
May 24
Full

Hourly Weather History & Observations

Time (MDT) Temp. Windchill Dew Point Humidity Pressure Visibility Wind Dir Wind Speed Gust Speed Precip Events Conditions
12:00 AM 35.6 °F 24.0 °F 8.6 °F 33% 30.10 in 10.0 mi SW 23.0 mph 44.9 mph N/A   Clear
12:20 AM 35.6 °F 22.3 °F 8.6 °F 33% 30.09 in 10.0 mi SSW 31.1 mph 44.9 mph N/A   Clear
12:40 AM 35.6 °F 22.3 °F 8.6 °F 33% 30.08 in 10.0 mi SW 31.1 mph 46.0 mph N/A   Clear
1:00 AM 35.6 °F 22.7 °F 10.4 °F 35% 30.09 in 10.0 mi SW 28.8 mph 44.9 mph N/A   Clear
1:20 AM 33.8 °F 21.0 °F 10.4 °F 38% 30.09 in 10.0 mi SSW 25.3 mph 41.4 mph N/A   Clear
1:40 AM 33.8 °F 19.9 °F 10.4 °F 38% 30.09 in 10.0 mi SW 31.1 mph 44.9 mph N/A   Clear
2:00 AM 33.8 °F 19.6 °F 10.4 °F 38% 30.09 in 10.0 mi SW 32.2 mph 46.0 mph N/A   Clear
2:20 AM 33.8 °F 21.0 °F 10.4 °F 38% 30.08 in 10.0 mi SW 25.3 mph 41.4 mph N/A   Clear
2:40 AM 32.0 °F 17.9 °F 10.4 °F 41% 30.08 in 10.0 mi SSW 28.8 mph 44.9 mph N/A   Clear
3:00 AM 32.0 °F 18.4 °F 10.4 °F 41% 30.09 in 10.0 mi SW 26.5 mph 44.9 mph N/A   Clear
3:20 AM 32.0 °F 18.1 °F 10.4 °F 41% 30.09 in 10.0 mi SW 27.6 mph 42.6 mph N/A   Clear
3:40 AM 32.0 °F 18.6 °F 10.4 °F 41% 30.10 in 10.0 mi SSW 25.3 mph 38.0 mph N/A   Clear
4:00 AM 32.0 °F 19.2 °F 10.4 °F 41% 30.10 in 10.0 mi SW 23.0 mph 39.1 mph N/A   Clear
4:20 AM 32.0 °F 18.9 °F 10.4 °F 41% 30.11 in 10.0 mi SW 24.2 mph 35.7 mph N/A   Clear
4:40 AM 32.0 °F 19.5 °F 10.4 °F 41% 30.12 in 10.0 mi SSW 21.9 mph 33.4 mph N/A   Clear
5:00 AM 32.0 °F 20.1 °F 10.4 °F 41% 30.13 in 10.0 mi SW 19.6 mph 35.7 mph N/A   Clear
5:20 AM 30.2 °F 17.1 °F 10.4 °F 44% 30.13 in 10.0 mi SW 21.9 mph 33.4 mph N/A   Clear
5:40 AM 30.2 °F 17.4 °F 10.4 °F 44% 30.14 in 10.0 mi SW 20.7 mph 31.1 mph N/A   Clear
6:00 AM 30.2 °F 17.1 °F 10.4 °F 44% 30.14 in 10.0 mi SSW 21.9 mph 34.5 mph N/A   Mostly Cloudy
6:20 AM 30.2 °F 17.1 °F 10.4 °F 44% 30.14 in 10.0 mi SW 21.9 mph 32.2 mph N/A   Overcast
6:40 AM 30.2 °F 16.8 °F 10.4 °F 44% 30.14 in 10.0 mi SW 23.0 mph 32.2 mph N/A   Overcast
7:00 AM 30.2 °F 16.8 °F 10.4 °F 44% 30.15 in 10.0 mi SW 23.0 mph 33.4 mph N/A   Overcast
7:20 AM 30.2 °F 17.8 °F 10.4 °F 44% 30.16 in 10.0 mi SSW 19.6 mph 29.9 mph N/A   Overcast
7:40 AM 30.2 °F 16.5 °F 10.4 °F 44% 30.17 in 10.0 mi SSW 24.2 mph 33.4 mph N/A   Overcast
8:00 AM 32.0 °F 18.9 °F 10.4 °F 41% 30.17 in 10.0 mi SSW 24.2 mph 33.4 mph N/A   Mostly Cloudy
8:20 AM 32.0 °F 19.2 °F 12.2 °F 44% 30.17 in 10.0 mi SW 23.0 mph 34.5 mph N/A   Scattered Clouds
8:40 AM 32.0 °F 20.1 °F 12.2 °F 44% 30.17 in 10.0 mi SW 19.6 mph 33.4 mph N/A   Clear
9:00 AM 32.0 °F 23.0 °F 14.0 °F 48% 30.18 in 10.0 mi SW 11.5 mph 32.2 mph N/A   Clear
9:20 AM 33.8 °F 23.5 °F 14.0 °F 44% 30.18 in 10.0 mi SSW 16.1 mph 26.5 mph N/A   Mostly Cloudy
9:40 AM 32.0 °F 20.5 °F 15.8 °F 51% 30.18 in 10.0 mi SW 18.4 mph 36.8 mph N/A   Overcast
10:00 AM 32.0 °F 20.5 °F 15.8 °F 51% 30.18 in 10.0 mi SW 18.4 mph 31.1 mph N/A   Scattered Clouds
10:20 AM 33.8 °F 22.5 °F 17.6 °F 52% 30.19 in 10.0 mi SSW 19.6 mph 32.2 mph N/A   Mostly Cloudy
10:40 AM 33.8 °F 22.5 °F 17.6 °F 52% 30.19 in 10.0 mi SW 19.6 mph 36.8 mph N/A   Mostly Cloudy
11:00 AM 33.8 °F 23.5 °F 19.4 °F 56% 30.19 in 10.0 mi SW 16.1 mph 34.5 mph N/A   Overcast
11:20 AM 33.8 °F 21.9 °F 19.4 °F 56% 30.18 in 10.0 mi SSW 21.9 mph 47.2 mph N/A   Overcast
11:40 AM 33.8 °F 22.5 °F 19.4 °F 56% 30.18 in 10.0 mi SSW 19.6 mph 39.1 mph N/A   Overcast
12:00 PM 33.8 °F 19.9 °F 19.4 °F 56% 30.17 in 10.0 mi SW 31.1 mph 43.7 mph N/A   Overcast
12:20 PM 33.8 °F 23.9 °F 19.4 °F 56% 30.17 in 10.0 mi SSW 15.0 mph 38.0 mph N/A   Overcast
12:40 PM 33.8 °F 20.5 °F 19.4 °F 56% 30.17 in 10.0 mi SW 27.6 mph 54.1 mph N/A   Overcast
1:00 PM 35.6 °F 22.3 °F 19.4 °F 52% 30.16 in 10.0 mi SW 31.1 mph 50.6 mph N/A   Mostly Cloudy
1:20 PM 35.6 °F 24.8 °F 19.4 °F 52% 30.15 in 10.0 mi SSW 19.6 mph 41.4 mph N/A   Mostly Cloudy
1:40 PM 35.6 °F 21.9 °F 19.4 °F 52% 30.15 in 10.0 mi SW 33.4 mph 49.5 mph N/A   Scattered Clouds
2:00 PM 35.6 °F 22.1 °F 17.6 °F 48% 30.15 in 10.0 mi SW 32.2 mph 54.1 mph N/A   Scattered Clouds
2:20 PM 35.6 °F 23.0 °F 14.0 °F 41% 30.15 in 10.0 mi SSW 27.6 mph 55.2 mph N/A   Scattered Clouds
2:40 PM 35.6 °F 22.5 °F 12.2 °F 38% 30.16 in 10.0 mi SSW 29.9 mph 52.9 mph N/A   Scattered Clouds
3:00 PM 35.6 °F 22.3 °F 12.2 °F 38% 30.16 in 10.0 mi SW 31.1 mph 57.5 mph N/A   Scattered Clouds
3:20 PM 35.6 °F 22.7 °F 10.4 °F 35% 30.17 in 10.0 mi SSW 28.8 mph 59.8 mph N/A   Scattered Clouds
3:40 PM 35.6 °F 21.9 °F 12.2 °F 38% 30.15 in 10.0 mi SW 33.4 mph 50.6 mph N/A   Scattered Clouds
4:00 PM 35.6 °F 23.2 °F 8.6 °F 33% 30.16 in 10.0 mi SW 26.5 mph 58.7 mph N/A   Scattered Clouds
4:20 PM 35.6 °F 20.6 °F 3.2 °F 26% 30.13 in 10.0 mi SW 41.4 mph 58.7 mph N/A   Scattered Clouds
4:40 PM 35.6 °F 22.3 °F 3.2 °F 26% 30.15 in 10.0 mi SW 31.1 mph 63.3 mph N/A   Clear
5:20 PM 33.8 °F 19.4 °F 5.0 °F 30% 30.17 in 10.0 mi SW 33.4 mph 52.9 mph N/A   Scattered Clouds
5:40 PM 33.8 °F 19.0 °F 3.2 °F 28% 30.16 in 10.0 mi SW 35.7 mph 63.3 mph N/A   Clear
6:00 PM 33.8 °F 19.4 °F 3.2 °F 28% 30.17 in 10.0 mi SW 33.4 mph 59.8 mph N/A   Clear
6:20 PM 32.0 °F 15.6 °F -0.4 °F 25% 30.16 in 10.0 mi SW 41.4 mph 58.7 mph N/A   Clear
6:40 PM 32.0 °F 16.0 °F -0.4 °F 25% 30.17 in 10.0 mi SW 39.1 mph 57.5 mph N/A   Clear
7:00 PM 32.0 °F 18.4 °F -2.2 °F 23% 30.20 in 10.0 mi SSW 26.5 mph 54.1 mph N/A   Clear
7:20 PM 30.2 °F 16.8 °F -5.8 °F 21% 30.22 in 10.0 mi SW 23.0 mph 40.3 mph N/A   Clear
8:00 PM 28.4 °F 14.7 °F -7.6 °F 21% 30.24 in 10.0 mi SW 21.9 mph 34.5 mph N/A   Clear
8:20 PM 26.6 °F 14.3 °F -11.2 °F 19% 30.24 in 10.0 mi SSW 16.1 mph 34.5 mph N/A   Clear
9:00 PM 23.0 °F 9.6 °F -9.4 °F 24% 30.27 in 10.0 mi SW 16.1 mph 21.9 mph N/A   Clear
9:20 PM 23.0 °F 17.0 °F -7.6 °F 26% 30.29 in 10.0 mi NW 4.6 mph - N/A   Clear
9:40 PM 21.2 °F 12.6 °F -0.4 °F 39% 30.29 in 10.0 mi NNW 6.9 mph - N/A   Clear
10:00 PM 19.4 °F 10.4 °F 1.4 °F 46% 30.29 in 10.0 mi ENE 6.9 mph - N/A   Clear
10:20 PM 19.4 °F 6.6 °F 1.4 °F 46% 30.30 in 10.0 mi NE 12.7 mph - N/A   Clear
10:40 PM 17.6 °F 3.2 °F 1.4 °F 49% 30.31 in 10.0 mi NE 15.0 mph - N/A   Clear
11:00 PM 17.6 °F 0.5 °F 5.0 °F 58% 30.32 in 10.0 mi NE 21.9 mph 26.5 mph N/A   Clear
11:20 PM 15.8 °F -1.9 °F 8.6 °F 73% 30.32 in 10.0 mi NE 21.9 mph 26.5 mph N/A   Clear
11:40 PM 15.8 °F -2.3 °F 8.6 °F 73% 30.32 in 10.0 mi NE 23.0 mph 33.4 mph N/A   Clear